Location: Barrio Las Umbrías
(40.4173°N, 4.8685°W)
Time: 12:07:09
(UTC+00:00)

Cosmos 1891 Rocket - Pass Details

Date: 17 August 2022
Orbit: 934 x 1018 km, 82.9° (Epoch: 27 September)

Event Time Altitude Azimuth Distance (km) Brightness Sun altitude
Rises 22:27:12 0° 352° (N) 3,765 8.5 -30.0°
Reaches altitude 10° 22:29:46 10° 352° (N) 2,812 7.7 -30.3°
Enters shadow 22:36:08 84° 294° (WNW) 1,027 4.5 -30.9°
